Flag for Jordan Weather past 2 weeks in Madaba, Jordan

Now
70 °F

Clear.


Feels Like: 70 °F
Forecast: 66 / 89 °F
Wind: No wind

Location: Queen Alia Airport

Current Time: May 26, 2015 at 1:07:18 AM

Latest Report: May 26, 2015 at 12:00 AM


Visibility: 10 mi

Pressure: 30.04 "Hg

Humidity: 33%

Dew point: 39 °F

Location of MadabaLocation

Historic Weather in Madaba — Graph

°F

Madaba temperature yesterday

Maximum temperature yesterday: 93 °F (at 2:00 PM)
Minimum temperature yesterday: 55 °F (at 5:00 AM)
Average temperature yesterday: 80 °F

Past Weeks' High & Low Weather Summary

 TemperatureHumidityPressure
High99 °F (May 19, 4:00 PM)94% (May 23, 6:00 AM)30.24 "Hg (May 23, 6:00 AM)
Low50 °F (May 11, 4:00 AM)8% (May 17, 3:00 PM)29.86 "Hg (May 10, 11:00 PM)
Average73 °F36%30.01 "Hg
* Reported May 10 11:00 PM — May 25 11:00 PM, Madaba, Weather by CustomWeather, © 2015

Note: Actual official high and low records may vary slightly from our data, if they occured in-between our weather recording intervals... More about our weather records

Advertising

Madaba weather history for previous 24 hours

 ConditionsComfort  
Time TempWeatherWind HumidityBarometerVisibility
11:00 PM
Mon, May 25
72 °FClear.No wind31%30.04 "Hg10 mi
10:00 PM72 °FClear.No wind31%30.04 "Hg10 mi
9:00 PM75 °FClear.5 mph34%30.04 "Hg10 mi
8:00 PM81 °FClear.7 mph24%30.04 "Hg4 mi
7:00 PM88 °FClear.12 mph19%30.04 "Hg4 mi
6:00 PM91 °FClear.12 mph16%30.04 "Hg4 mi
5:00 PM93 °FPassing clouds.14 mph13%30.04 "Hg4 mi
4:00 PM93 °FPassing clouds.14 mph13%30.04 "Hg4 mi
3:00 PM93 °FClear.9 mph13%30.04 "Hg4 mi
2:00 PM93 °FClear.12 mph14%30.07 "Hg5 mi
1:00 PM91 °FSunny.6 mph18%30.07 "Hg10 mi
12:00 PM91 °FSunny.6 mph18%30.07 "Hg10 mi
11:00 AM90 °FSunny.8 mph17%30.07 "Hg10 mi
10:00 AM81 °FSunny.6 mph28%30.07 "Hg10 mi
8:00 AM73 °FSunny.No wind33%30.07 "Hg10 mi
7:00 AM63 °FSunny.No wind52%30.07 "Hg10 mi
5:00 AM55 °FClear.No wind55%30.04 "Hg10 mi
4:00 AM63 °FClear.No wind52%30.04 "Hg10 mi
3:00 AM64 °FClear.No wind52%30.04 "Hg10 mi
Weather by CustomWeather, © 2015

See weather overviewHow to use our weather pages